FW9015 Weather Reports


time (UTC)temp
C
wind
direction
speed
KPH
gust
KPH
rain 1hr
cm
rain 24hr
cm
rain mn
cm
humidity
%
barometer
mb
20260507091602 15 40 6.4 22.5 0.00 0.08 0.00 100 1010.8
20260507090046 15 291 8.0 20.9 0.00 0.08 0.00 100 1010.6
20260507084542 15 310 11.3 29.0 0.00 0.08 0.00 100 1010.6
20260507083040 15 338 11.3 33.8 0.00 0.08 0.00 100 1010.7
20260507081545 16 48 11.3 27.4 0.00 0.08 0.00 100 1010.8
20260507080043 16 19 9.7 24.1 0.00 0.08 0.00 100 1010.7
20260507074545 16 355 9.7 20.9 0.00 0.08 0.00 100 1010.2
20260507073041 18 28 4.8 14.5 0.00 0.08 0.00 100 1009.6
20260507071538 18 26 3.2 8.0 0.00 0.08 0.00 100 1009.1
20260507070053 19 331 4.8 8.0 0.00 0.08 0.00 100 1008.7
20260507064546 20 49 0.0 1.6 0.00 0.08 0.00 100 1008.9
20260507063039 20 0 0.0 1.6 0.00 0.08 0.00 100 1008.9
20260507061540 20 50 0.0 9.7 0.00 0.08 0.00 100 1008.8
20260507054538 20 227 3.2 8.0 0.00 0.08 0.00 100 1009.4
20260507053051 21 207 3.2 12.9 0.00 0.08 0.00 100 1009.5
20260507051542 21 243 3.2 8.0 0.00 0.08 0.00 100 1009.6
20260507050042 21 222 1.6 12.9 0.00 0.08 0.00 100 1009.7
20260507044539 21 246 4.8 14.5 0.00 0.08 0.00 100 1009.8
20260507043038 21 219 3.2 11.3 0.00 0.08 0.00 100 1009.9
20260507041539 20 226 4.8 11.3 0.00 0.08 0.00 100 1009.9
20260507040043 20 271 1.6 12.9 0.00 0.08 0.00 100 1009.7
20260507034552 20 145 1.6 8.0 0.00 0.08 0.08 100 1009.6
20260507033043 20 240 1.6 11.3 0.00 0.08 0.08 100 1009.6
20260507031538 20 219 3.2 9.7 0.00 0.08 0.08 100 1009.5
20260507030040 20 217 1.6 6.4 0.00 0.08 0.08 100 1009.5
20260507024554 20 222 0.0 6.4 0.00 0.08 0.08 100 1009.6
20260507023040 20 229 1.6 4.8 0.00 0.08 0.08 100 1009.9
20260507021546 20 0 1.6 4.8 0.00 0.08 0.08 100 1010.0
20260507020039 20 229 1.6 6.4 0.00 0.08 0.08 100 1010.0
20260507014545 20 159 1.6 4.8 0.00 0.08 0.08 100 1009.9
20260507013038 20 213 0.0 3.2 0.00 0.08 0.08 100 1010.1
20260507011544 20 221 0.0 3.2 0.00 0.08 0.08 100 1010.3
20260507010049 20 222 1.6 3.2 0.00 0.08 0.08 100 1010.2
20260507004538 20 231 0.0 3.2 0.00 0.08 0.08 100 1010.2
20260507003040 20 213 1.6 3.2 0.00 0.08 0.08 100 1010.0
20260507001546 21 190 1.6 1.6 0.00 0.08 0.08 100 1010.1
20260507000043 21 226 1.6 4.8 0.00 0.08 0.08 100 1009.9
20260506234542 21 229 1.6 4.8 0.00 0.08 0.08 100 1010.0
20260506233041 22 149 1.6 4.8 0.00 0.08 0.08 100 1010.0
20260506231539 22 173 1.6 6.4 0.00 0.08 0.08 100 1009.9
20260506230044 22 205 1.6 8.0 0.00 0.08 0.08 100 1010.0
20260506224544 22 213 3.2 14.5 0.00 0.08 0.08 100 1009.7
20260506223043 22 260 4.8 17.7 0.00 0.08 0.08 100 1009.9
20260506221547 22 211 6.4 20.9 0.00 0.08 0.08 100 1010.0
20260506220050 22 232 3.2 6.4 0.00 0.08 0.08 100 1010.1
20260506214539 22 221 3.2 8.0 0.00 0.08 0.08 100 1010.0
20260506213043 22 188 0.0 4.8 0.00 0.08 0.08 100 1009.8
20260506211551 22 222 0.0 3.2 0.00 0.08 0.08 100 1009.9
20260506210043 21 244 0.0 3.2 0.00 0.08 0.08 100 1009.8
20260506204541 22 248 0.0 1.6 0.00 0.08 0.08 100 1009.7
20260506203041 22 255 0.0 4.8 0.00 0.08 0.08 100 1009.5
20260506201540 21 256 1.6 8.0 0.00 0.08 0.08 100 1009.8
20260506200038 21 211 3.2 11.3 0.00 0.08 0.08 100 1009.8
20260506194539 21 190 3.2 17.7 0.00 0.08 0.08 100 1009.6
20260506193039 21 225 4.8 20.9 0.00 0.08 0.08 100 1010.0
20260506191539 21 219 3.2 11.3 0.00 0.08 0.08 100 1010.2
20260506190038 20 254 1.6 12.9 0.00 0.08 0.08 100 1010.7
20260506184546 20 215 3.2 12.9 0.00 0.08 0.08 100 1010.7
20260506183043 20 209 4.8 12.9 0.00 0.08 0.08 100 1011.1
20260506181539 20 217 3.2 9.7 0.00 0.08 0.08 100 1011.3
20260506180048 20 212 4.8 11.3 0.00 0.08 0.08 100 1011.3
20260506174555 20 218 4.8 14.5 0.00 0.08 0.08 100 1011.6
20260506173046 20 198 4.8 14.5 0.03 0.08 0.08 100 1011.4
20260506171540 19 218 8.0 14.5 0.03 0.08 0.08 100 1011.6
20260506170045 18 206 4.8 14.5 0.05 0.08 0.08 100 1011.9
20260506164539 18 182 3.2 11.3 0.08 0.08 0.08 100 1012.0
20260506163044 18 211 4.8 8.0 0.05 0.05 0.05 100 1012.5
20260506161547 18 215 3.2 9.7 0.05 0.05 0.05 100 1012.5
20260506160043 18 173 3.2 8.0 0.03 0.03 0.03 100 1013.1
20260506154541 19 227 3.2 20.9 0.00 0.00 0.00 100 1013.2
20260506153046 20 224 6.4 16.1 0.00 0.00 0.00 100 1013.3
20260506151546 20 223 4.8 22.5 0.00 0.00 0.00 100 1013.4
20260506150048 20 216 4.8 12.9 0.00 0.00 0.00 100 1013.1
20260506144559 20 210 4.8 12.9 0.00 0.00 0.00 100 1013.0
20260506143049 20 215 6.4 11.3 0.00 0.00 0.00 100 1012.9
20260506141540 20 234 4.8 17.7 0.00 0.00 0.00 100 1012.9
20260506134546 20 225 6.4 17.7 0.00 0.00 0.00 100 1013.0
20260506133043 20 186 4.8 20.9 0.00 0.00 0.00 100 1012.9
20260506131544 20 214 6.4 17.7 0.00 0.00 0.00 100 1013.2
20260506130059 20 210 3.2 12.9 0.00 0.00 0.00 100 1013.1
20260506124538 19 232 8.0 22.5 0.00 0.00 0.00 100 1013.1
20260506123048 19 222 4.8 14.5 0.00 0.00 0.00 100 1013.3
20260506121551 19 183 6.4 16.1 0.00 0.00 0.00 100 1013.4
20260506120039 19 192 3.2 11.3 0.00 0.00 0.00 100 1013.4
20260506114538 18 225 4.8 16.1 0.00 0.00 0.00 100 1013.3
20260506113042 18 221 3.2 16.1 0.00 0.00 0.00 100 1013.1
20260506111543 18 223 4.8 14.5 0.00 0.00 0.00 100 1013.0
20260506110044 17 215 3.2 11.3 0.00 0.00 0.00 100 1013.1
20260506104543 18 216 3.2 9.7 0.00 0.00 0.00 100 1013.2
20260506103041 17 213 4.8 12.9 0.00 0.00 0.00 100 1013.0
20260506101544 17 217 4.8 11.3 0.00 0.00 0.00 100 1012.9
20260506100055 17 227 4.8 14.5 0.00 0.00 0.00 100 1012.9
20260506094545 17 163 4.8 11.3 0.00 0.00 0.00 100 1012.9
20260506093039 17 210 4.8 16.1 0.00 0.00 0.00 100 1013.1